GFSSE_con_3kmhel_147.txt.gz
Helicity
-4 54 113 111 107 108 97 81 68 51 42 32 29 17 10 13 11 7 7 16 19 29 33 32 19 10 14 27 23 24 25 37 50 56 68 72 77 73 63 41 66 59 55
38 71 134 124 112 102 95 80 73 67 54 47 39 33 24 16 18 20 11 5 10 13 24 24 24 18 10 14 17 11 10 24 29 37 58 63 84 81 54 29 43 51 46
115 118 152 142 128 130 117 101 87 78 73 62 52 44 36 25 19 19 16 13 2 1 8 15 12 13 21 14 -2 -1 10 15 3 18 33 46 60 69 43 5 75 56 46
149 156 163 170 155 135 123 111 97 95 84 74 60 50 42 39 34 27 23 16 12 -2 -5 5 1 7 12 12 9 -0 -2 16 -6 -4 -4 27 27 52 61 74 75 64 54
130 141 155 160 148 132 114 110 92 77 64 58 59 56 50 47 48 40 28 24 21 15 -2 2 7 5 19 11 5 8 14 12 -14 1 28 25 58 31 55 69 63 68 53
95 126 164 163 127 113 110 107 97 93 87 68 69 72 72 74 54 48 37 29 38 28 19 10 11 13 16 18 8 8 8 28 -0 6 39 84 39 24 12 68 62 64 52
119 140 145 164 124 104 94 91 100 96 103 109 107 101 95 89 82 71 48 37 29 34 32 34 30 23 30 19 24 17 17 16 24 20 61 55 33 43 -27 55 68 69 58
169 165 158 153 165 106 106 83 83 86 104 123 139 140 128 106 88 77 63 45 40 32 43 35 41 37 35 31 18 22 27 30 29 26 57 55 47 -8 -22 53 77 77 74
143 141 138 153 168 149 140 155 110 104 119 138 160 165 144 133 137 108 64 48 37 24 38 71 65 63 59 62 40 29 29 32 39 44 49 22 44 16 -35 105 88 90 83
113 128 150 179 207 198 178 247 228 156 142 121 139 137 142 135 125 121 114 67 36 32 22 4 42 57 54 62 59 56 52 37 43 34 69 58 54 61 45 108 95 94 89
109 117 144 185 209 202 171 188 188 148 153 108 114 120 118 128 105 101 115 121 84 38 22 23 9 58 48 50 64 55 55 84 67 50 67 63 79 56 89 83 88 95 93
114 127 137 163 186 183 152 155 151 134 100 107 113 58 71 92 108 113 130 123 124 100 54 55 52 48 42 86 96 83 98 102 91 79 73 87 99 107 102 88 89 90 106
86 124 135 146 156 155 119 121 116 108 75 105 110 10 33 35 48 57 71 98 122 144 142 78 48 73 78 93 105 120 123 120 110 93 71 84 89 122 99 90 74 84 110
81 105 117 116 118 122 76 88 89 81 79 93 112 33 21 -3 18 30 49 81 90 111 139 150 94 68 47 70 96 106 131 131 131 101 82 68 70 71 63 60 65 71 83
93 116 113 103 116 114 94 94 90 74 77 83 97 45 35 22 4 13 40 69 96 106 102 116 136 96 100 76 70 77 116 144 231 156 48 72 88 90 58 56 45 56 85
101 110 99 85 97 100 87 77 66 53 65 80 69 61 72 39 32 19 34 53 74 109 114 103 118 105 128 122 92 97 106 158 122 235 281 294 76 105 81 88 36 42 63
102 98 101 87 96 98 69 58 58 42 52 44 51 59 64 59 57 35 35 57 84 97 116 121 112 104 114 149 142 110 138 115 99 191 239 193 267 180 28 155 206 30 48
93 83 80 75 84 80 54 41 29 26 19 24 40 58 83 72 74 63 51 74 90 95 93 117 121 134 147 149 157 141 163 178 79 101 177 229 213 116 81 129 142 56 89
99 101 86 77 89 77 60 51 23 18 9 25 31 59 112 130 147 113 90 88 121 109 126 137 162 168 145 169 171 162 165 181 169 133 104 143 159 128 190 157 145 112 87
100 104 99 94 105 94 74 45 15 15 31 37 54 81 90 94 111 80 70 74 65 67 97 127 157 166 191 152 154 152 126 138 183 167 134 115 148 143 132 182 124 176 116
105 113 113 115 89 59 51 4 -11 -2 1 18 28 49 77 54 58 50 38 34 21 33 52 97 100 132 139 204 153 117 120 135 140 163 156 146 119 102 133 155 143 134 85
110 113 111 110 88 57 27 -14 -27 -11 -0 18 21 38 51 52 63 81 97 80 54 26 37 53 105 128 126 176 177 188 111 106 143 143 171 166 140 130 114 121 168 177 154
100 103 116 132 116 85 58 14 12 18 19 1 -2 -23 -12 -1 33 78 115 121 121 105 50 44 51 101 120 141 210 238 260 181 158 115 142 136 135 141 112 78 93 139 176
121 124 145 165 154 107 74 39 49 30 10 24 30 14 -4 -32 22 106 108 92 77 71 76 75 88 100 119 132 133 204 249 274 248 182 194 196 172 163 159 152 111 112 139
167 141 148 188 159 112 96 88 75 70 58 55 39 1 -40 -90 8 75 76 59 58 56 62 76 93 99 113 125 153 136 197 181 221 169 104 58 88 105 121 171 190 150 129
226 202 209 215 164 123 126 120 98 102 77 63 43 20 -28 -90 -21 37 46 38 27 27 33 32 41 57 89 98 132 155 153 210 295 243 180 81 36 -3 39 96 84 157 143

GFSSE_con_3kmhel_150.txt.gz
Helicity
110 103 119 99 116 106 104 90 75 62 53 47 44 43 43 42 40 37 37 33 30 27 35 46 38 39 51 54 48 42 25 22 23 26 34 53 59 66 68 68 70 57 57
-93 113 117 122 145 143 125 104 94 82 61 54 48 46 45 47 43 38 33 31 33 31 27 25 37 37 34 38 45 41 23 17 20 18 36 55 67 71 63 58 59 61 54
-86 47 127 120 122 119 113 114 106 95 82 72 60 53 49 47 48 40 34 28 26 27 23 21 17 27 34 30 36 38 20 20 12 5 18 20 35 61 46 49 59 58 56
61 77 93 103 104 111 120 113 108 99 88 74 66 57 58 53 48 46 35 27 22 18 15 14 24 13 24 31 30 36 16 15 19 16 23 16 12 27 26 33 60 60 65
141 137 106 92 101 104 111 101 97 103 96 95 85 80 76 78 60 45 32 25 22 21 14 11 17 29 26 17 30 29 16 17 13 18 45 32 10 14 16 50 65 66 70
112 132 143 143 109 110 110 97 98 104 105 104 103 98 88 95 107 90 54 31 27 28 24 19 20 20 37 35 19 34 10 11 26 19 39 35 29 30 23 60 58 59 68
104 114 126 154 161 168 142 131 115 110 115 137 142 142 138 116 106 107 91 67 43 29 26 26 26 32 36 38 46 46 42 16 18 30 44 23 41 26 64 72 77 60 63
149 140 152 169 188 204 211 143 137 133 153 162 173 183 164 151 143 124 98 79 60 44 26 18 19 25 28 25 27 42 50 45 33 34 34 23 19 21 13 40 70 71 68
179 188 184 193 179 211 230 222 194 177 192 208 200 194 186 183 179 160 141 127 95 66 48 41 28 27 33 40 28 29 44 52 54 35 48 38 -12 13 16 25 16 68 70
194 200 203 187 183 179 186 236 225 199 191 184 184 188 174 167 174 173 174 178 163 151 102 61 57 35 21 40 46 40 42 52 66 49 48 53 -13 16 25 36 8 54 87
187 200 196 212 219 206 208 198 196 200 192 163 158 169 129 115 122 149 159 171 180 187 186 177 102 69 61 50 45 47 46 92 92 77 74 46 5 6 25 52 34 51 75
190 200 196 205 206 187 171 161 136 136 117 82 66 73 65 69 82 96 118 150 166 178 189 205 202 159 99 96 87 70 87 100 99 79 99 57 31 -7 30 39 42 80 94
118 160 198 192 176 167 150 127 107 104 111 95 63 51 45 43 38 53 45 63 74 110 73 104 150 186 165 124 103 109 110 110 129 116 91 68 51 17 33 42 60 76 95
132 143 171 178 161 147 122 121 106 114 118 114 81 64 24 -2 19 20 24 52 58 56 54 59 62 102 136 147 117 93 83 99 155 145 120 98 98 90 34 39 56 67 79
138 134 150 149 150 134 130 113 106 115 105 98 101 103 55 48 29 -8 -1 4 23 56 80 62 58 67 90 118 127 137 128 119 123 176 162 182 164 222 206 249 42 40 46
109 110 110 131 116 103 95 89 74 66 64 75 79 94 125 84 59 35 19 6 3 28 52 82 88 84 80 100 101 122 136 150 140 158 179 206 209 292 263 256 47 37 36
113 110 102 108 104 101 84 73 57 40 29 19 24 52 57 69 70 58 40 32 35 36 44 44 77 96 85 108 136 100 129 132 172 165 145 153 157 178 224 53 76 44 4
127 113 105 100 96 95 78 47 19 17 11 15 1 -1 26 15 20 13 -3 16 54 53 52 54 56 73 112 118 129 133 110 138 155 173 174 130 136 133 140 133 -15 36 8
105 98 91 88 82 69 59 35 30 26 2 -16 -6 -4 18 23 23 11 16 34 57 45 61 76 85 70 71 93 131 163 146 121 155 167 168 121 155 132 171 126 17 -37 -20
96 86 85 87 94 94 91 64 45 23 16 10 3 18 33 7 -0 -18 -11 8 18 43 49 74 120 109 95 97 117 129 139 123 116 149 166 145 116 141 143 149 97 11 10
119 128 117 118 114 103 86 70 42 19 1 -1 7 18 12 -6 -11 -25 -18 8 34 60 64 67 59 97 137 126 110 84 100 131 123 128 143 160 139 132 115 121 131 87 105
100 106 129 121 119 94 60 39 19 5 10 14 30 42 46 53 42 7 -6 16 51 78 96 85 77 83 111 142 152 155 83 143 141 129 148 162 126 142 129 116 108 104 112
112 110 131 118 118 114 94 47 26 25 34 46 52 35 34 26 9 -11 13 54 69 93 90 93 85 101 120 171 233 236 210 231 236 200 173 150 138 153 144 126 99 94 117
97 108 145 130 128 127 95 67 55 31 47 41 49 43 36 23 -11 -24 32 95 97 79 80 73 74 98 103 114 166 206 214 259 253 274 271 307 223 169 138 132 117 110 106
104 149 156 154 151 130 106 58 50 78 62 59 39 35 24 21 -54 -53 35 58 63 46 34 41 51 57 60 79 101 159 200 185 204 202 141 175 179 267 295 260 211 167 155
162 210 177 171 149 140 117 98 99 88 74 56 30 21 26 15 -41 -20 20 39 35 28 41 47 53 60 61 52 53 79 138 189 187 229 180 121 80 49 179 210 219 289 278

GFSSE_con_3kmhel_153.txt.gz
Helicity
42 77 146 117 117 111 122 104 85 76 66 67 66 64 64 62 58 52 49 44 50 58 67 67 59 45 44 50 43 32 32 33 22 22 23 46 45 50 53 51 59 49 41
28 119 157 140 103 122 121 108 103 94 77 70 68 66 66 60 57 55 53 48 45 50 57 62 64 66 71 44 37 37 29 23 25 38 31 26 35 49 52 50 54 47 52
1 121 125 123 120 114 110 109 108 107 102 91 75 67 66 64 57 49 49 52 47 42 41 45 49 56 63 65 40 20 26 28 21 29 34 42 29 37 42 50 44 61 52
44 44 80 109 108 116 112 109 105 97 92 92 88 81 70 62 58 53 44 36 40 41 35 32 36 42 51 47 52 43 21 25 18 28 30 27 24 26 28 48 58 58 62
82 103 126 128 129 114 105 100 109 110 105 101 98 94 93 97 99 85 59 42 35 32 34 33 33 40 44 47 32 33 33 43 28 30 22 20 16 24 25 22 48 57 57
95 119 165 180 182 149 142 145 140 143 142 137 139 139 132 132 128 116 104 81 57 51 39 31 31 32 42 43 36 28 20 36 48 47 30 11 18 24 26 45 50 63 71
101 139 166 210 199 174 171 160 158 165 168 182 186 185 191 197 193 173 151 141 124 96 68 44 34 30 32 44 41 40 30 24 35 52 52 35 24 17 11 22 68 69 70
84 132 173 197 197 200 185 187 186 201 208 219 218 215 203 196 187 181 173 175 173 169 132 79 55 36 28 35 45 40 43 33 44 38 41 48 36 22 19 25 54 47 69
157 189 200 190 191 190 205 199 201 209 214 225 219 196 184 182 173 169 172 175 173 189 192 175 110 64 46 33 36 53 54 36 48 73 50 45 28 30 16 -3 33 67 59
221 232 222 204 190 187 168 195 186 180 169 185 189 174 154 154 168 169 154 158 160 178 180 195 213 166 85 63 45 52 62 68 49 45 68 50 22 20 22 19 33 67 73
249 248 222 223 203 173 185 189 186 177 164 165 161 168 117 94 98 113 135 163 166 163 169 204 229 237 215 131 83 61 71 103 80 68 71 65 18 4 -1 20 53 65 67
230 249 228 229 224 193 182 174 151 128 100 96 98 86 68 75 85 93 107 145 146 149 141 165 183 195 199 166 132 143 116 116 111 92 87 51 51 -1 -5 20 64 86 54
164 208 220 200 187 178 162 134 127 103 83 76 86 67 53 45 34 35 31 39 48 96 50 77 102 107 131 130 143 133 119 122 125 111 79 61 43 39 11 19 33 43 45
169 193 197 192 176 165 138 140 122 106 99 91 80 72 33 6 12 8 -9 -9 -4 16 40 27 43 87 121 125 116 137 129 122 117 104 105 97 83 59 42 54 53 50 51
195 191 179 163 161 141 140 123 123 113 93 69 77 75 42 30 23 15 -1 -14 -11 3 9 27 24 33 71 122 142 126 132 128 115 121 112 115 125 91 28 93 150 120 106
148 152 146 154 142 129 121 108 86 75 59 45 43 52 64 34 30 27 25 15 10 9 20 18 29 43 56 71 128 160 154 145 148 130 129 156 125 106 61 121 250 152 167
131 125 138 149 145 142 119 103 92 76 65 44 13 31 37 38 41 35 18 19 23 35 40 37 46 41 53 72 97 136 161 181 173 172 144 146 145 105 77 143 173 186 116
150 163 156 135 122 112 101 94 87 75 43 23 -1 -2 13 17 23 21 5 14 15 -11 -15 9 37 56 52 60 80 109 150 161 191 197 196 167 162 146 115 124 116 112 136
140 127 126 118 107 96 89 78 71 56 49 31 24 36 41 40 40 16 1 -5 6 8 28 39 47 52 74 87 83 101 117 179 176 185 193 194 148 134 107 98 87 115 80
135 124 121 105 91 70 64 73 79 84 58 45 36 47 47 24 12 -29 -38 -37 -29 -2 37 62 67 59 69 71 117 132 123 134 168 185 190 171 169 136 121 83 112 91 107
148 115 79 72 69 80 95 90 87 74 49 45 37 36 32 18 11 -8 -20 -19 -18 15 30 47 91 132 125 176 159 101 150 135 135 163 185 179 162 152 109 104 106 113 91
125 93 77 82 90 93 92 91 79 55 53 34 34 39 45 38 26 14 2 3 10 42 71 91 111 140 142 146 192 141 28 181 200 159 153 168 157 166 117 98 117 107 106
97 70 82 86 101 100 108 86 79 71 65 68 76 77 62 48 22 16 15 37 64 61 70 81 88 100 105 103 116 154 162 176 320 272 228 184 177 160 140 113 126 117 115
84 94 101 93 81 92 99 97 86 51 48 37 45 52 32 30 39 28 20 40 47 54 54 56 48 57 50 21 61 83 141 165 211 303 352 381 306 212 129 116 105 95 101
101 104 112 114 110 102 113 98 78 71 55 57 61 43 33 25 23 49 5 21 26 48 49 50 55 64 56 45 47 63 80 119 118 143 183 296 407 380 310 322 330 332 267
116 125 133 137 128 132 118 104 96 90 83 85 46 18 7 16 10 21 -10 5 14 28 38 56 54 52 51 38 27 33 56 87 152 150 99 119 195 189 289 286 364 475 355

GFSSE_con_3kmhel_156.txt.gz
Helicity
23 45 49 15 154 136 99 85 89 81 78 75 67 63 59 59 58 58 57 54 56 56 60 63 63 63 61 49 45 47 41 18 21 31 32 38 26 22 34 43 44 34 48
54 81 67 54 165 135 112 109 106 108 98 91 81 77 71 63 57 52 46 43 41 48 55 64 67 59 56 46 41 42 52 42 26 19 18 32 32 36 38 41 39 27 42
76 75 54 75 136 133 111 110 112 108 108 106 97 80 72 69 65 60 55 49 43 38 41 49 54 52 54 46 40 42 39 46 46 32 9 9 18 45 46 42 36 42 46
43 55 78 84 128 121 121 129 131 125 119 111 102 100 107 112 97 83 73 63 52 39 34 28 39 50 51 50 43 44 37 25 30 49 37 20 -0 19 34 43 47 41 53
156 121 97 128 150 136 142 140 141 137 130 131 138 138 141 146 151 157 152 115 74 57 45 38 39 44 48 51 44 45 44 37 31 23 36 44 29 -5 13 40 43 50 49
47 72 138 188 160 157 164 167 154 160 163 160 165 176 186 206 218 231 225 201 183 152 110 67 53 50 43 41 39 36 42 39 43 38 39 14 33 17 5 34 45 54 55
56 106 165 171 164 178 178 172 173 186 178 176 184 189 195 194 194 195 190 185 180 163 160 137 106 74 53 47 44 34 33 36 41 44 51 51 25 4 20 25 40 47 48
90 115 115 143 174 188 196 187 175 195 207 210 204 194 191 184 184 181 182 175 168 164 159 158 168 146 101 67 53 46 38 44 48 51 41 49 48 26 10 21 45 45 63
129 123 130 153 165 191 194 184 181 187 203 194 183 186 178 177 173 168 165 165 160 167 171 177 177 176 188 130 82 62 50 48 67 60 49 51 40 42 25 27 41 47 49
148 144 146 162 163 157 156 184 184 181 176 176 163 162 160 156 157 149 149 152 148 152 157 166 176 186 193 207 191 130 82 63 69 96 90 57 41 34 37 31 23 24 51
180 158 143 157 161 166 170 161 153 169 171 161 145 159 119 84 91 106 134 147 137 143 149 156 159 154 149 150 181 203 164 99 77 93 110 82 47 33 27 18 26 26 48
154 168 184 208 214 204 190 182 160 132 107 101 106 98 79 77 89 97 115 149 151 163 155 166 171 164 130 80 90 138 123 120 127 88 88 71 53 34 31 31 31 48 61
141 184 218 230 217 205 192 143 117 106 92 86 105 95 75 58 53 49 47 57 63 119 72 99 117 117 127 110 102 93 111 127 116 101 83 51 51 41 34 38 51 53 77
161 199 231 218 195 172 154 164 146 129 114 101 89 91 46 21 15 9 2 5 12 18 40 40 25 57 97 125 127 124 125 131 127 117 91 59 59 54 45 34 40 58 86
201 212 214 192 180 170 177 152 141 115 95 75 74 70 43 30 28 24 24 23 20 26 19 18 16 28 46 74 116 122 127 136 147 149 105 86 50 74 70 93 39 61 41
199 203 184 187 164 157 153 130 100 86 71 73 70 63 56 28 32 29 22 27 28 30 30 31 47 47 49 54 73 109 137 126 143 164 167 121 90 85 95 115 82 89 112
172 168 178 165 152 139 111 93 86 73 69 57 41 44 45 35 35 22 6 6 9 8 4 6 23 39 57 68 76 91 108 149 147 161 184 189 154 108 96 121 64 132 107
167 184 176 142 127 116 105 89 88 81 58 42 36 28 48 52 59 43 39 35 33 12 11 11 10 15 22 62 95 110 123 123 164 171 186 207 222 187 118 94 81 45 93
177 175 149 126 112 90 87 84 76 68 48 31 28 43 68 67 64 42 20 1 -4 -19 -36 -39 -13 26 65 78 80 107 131 137 129 159 174 195 207 222 192 112 91 61 47
171 156 141 107 88 70 67 63 55 46 52 61 74 77 70 50 32 -8 -28 -17 -18 -32 -17 21 61 87 109 103 86 80 90 119 120 117 140 156 183 183 205 178 125 87 67
186 173 121 108 98 52 32 34 54 62 65 72 64 66 51 38 33 7 -3 -30 -33 -23 -2 13 42 65 88 83 108 142 125 128 153 180 136 158 165 166 153 160 147 119 82
172 148 122 108 74 55 49 59 70 67 85 67 49 36 27 26 5 7 -7 -35 -16 10 32 47 57 65 52 53 50 62 27 59 227 292 184 184 158 171 151 131 110 119 95
162 111 100 76 56 64 77 65 73 89 75 60 41 45 40 36 20 7 2 -22 -5 18 28 42 40 62 63 55 52 59 48 85 31 149 319 393 225 176 173 162 106 138 158
125 108 100 67 61 91 91 95 91 60 61 54 47 48 45 24 4 28 41 23 7 24 24 27 28 50 48 28 51 71 69 66 64 47 131 281 407 459 280 228 217 170 156
165 119 81 82 114 100 79 40 42 84 73 59 65 73 36 23 23 49 58 27 10 20 17 15 34 48 51 45 44 48 60 65 50 72 37 47 210 345 352 425 388 293 305
181 114 87 109 101 67 38 56 100 97 90 79 77 67 23 27 32 44 41 26 10 -6 1 -4 18 28 42 48 51 42 37 67 52 55 51 80 95 165 227 299 357 334 361

GFSSE_con_3kmhel_159.txt.gz
Helicity
-6 13 50 57 61 57 94 124 91 81 76 80 81 81 74 65 59 55 52 50 51 56 55 52 48 44 42 44 43 30 21 21 23 35 38 14 19 38 42 33 43 29 38
47 58 50 55 56 68 114 125 140 115 89 92 89 90 79 67 62 60 60 59 52 56 53 45 48 47 44 45 44 39 29 17 13 8 21 39 23 19 37 35 19 46 38
110 96 54 55 52 82 117 122 128 127 129 128 120 93 81 67 64 65 64 54 47 42 51 44 40 39 42 46 45 45 38 28 20 16 -2 7 27 36 24 27 26 35 31
112 96 74 48 71 103 131 145 151 150 145 126 125 138 134 136 147 155 133 97 78 67 55 49 40 39 39 41 45 52 44 34 26 21 20 5 5 34 39 12 19 26 36
109 114 127 85 97 118 151 159 168 173 170 179 171 162 175 186 193 186 189 185 173 134 93 68 59 52 45 43 44 49 45 41 32 24 25 24 20 18 19 34 26 26 35
62 185 167 118 114 129 148 160 175 180 171 157 154 163 179 187 190 201 205 200 187 177 169 158 132 93 62 51 45 46 48 47 39 36 37 30 17 25 13 21 31 37 42
108 72 88 118 115 141 147 171 189 179 178 175 173 175 182 178 174 174 175 173 173 173 173 168 164 165 149 91 45 41 49 44 40 41 38 44 35 15 8 28 30 37 55
88 84 92 116 128 145 150 169 195 193 191 203 198 186 170 160 156 155 151 150 153 153 157 161 166 162 178 183 137 95 59 67 54 45 36 42 46 32 22 24 32 41 51
128 128 114 87 111 138 152 165 180 195 200 202 201 178 157 149 146 146 146 151 152 154 159 161 162 161 167 162 161 157 127 86 64 70 61 58 60 36 24 26 34 47 57
124 100 91 86 91 112 130 168 189 199 201 197 188 167 134 134 143 145 148 155 156 157 156 155 151 150 141 133 157 169 158 88 86 61 65 64 61 49 39 27 31 49 53
134 134 116 109 115 128 133 144 168 188 192 176 152 164 137 113 123 134 146 153 152 155 145 150 145 132 125 114 122 140 140 121 130 101 89 82 58 46 42 37 40 39 40
137 143 132 121 121 122 130 154 164 154 134 121 113 104 79 78 75 75 90 119 126 149 133 148 152 148 139 112 102 119 117 118 113 107 99 91 53 45 48 46 44 43 43
140 141 152 158 174 173 172 147 115 95 82 79 102 76 55 41 47 48 48 60 70 103 85 109 117 118 123 113 118 125 133 123 115 112 124 143 86 59 53 60 37 47 43
161 178 180 196 203 197 143 130 106 97 91 83 79 82 63 49 55 54 47 57 54 56 67 64 57 70 94 114 111 104 130 149 161 149 118 94 114 110 89 88 50 44 52
192 193 213 204 183 156 150 129 123 109 90 73 64 62 43 42 42 39 35 32 32 37 40 41 47 53 61 71 90 119 126 131 150 180 184 130 99 95 101 88 58 68 54
191 204 197 182 158 148 152 136 106 84 66 59 56 63 75 62 61 50 45 43 45 42 38 34 36 39 52 68 93 117 130 163 157 161 170 185 152 116 96 101 87 65 77
187 179 171 161 152 146 130 107 82 66 61 63 64 82 79 78 71 51 39 37 34 21 12 10 19 36 47 65 79 98 112 120 155 180 173 187 188 166 133 118 100 100 105
176 179 168 143 139 124 99 78 66 67 62 60 58 60 85 89 85 68 57 51 52 34 19 28 36 47 60 64 79 91 110 121 107 114 148 158 189 190 181 167 135 94 94
173 194 175 142 118 100 89 80 83 83 71 71 76 84 93 90 82 65 59 59 50 14 -15 -1 23 39 49 72 79 77 84 87 119 135 133 149 138 167 181 172 211 124 96
206 206 177 140 114 99 94 88 81 76 75 72 77 88 95 88 84 63 53 47 24 -20 -36 6 41 65 66 88 96 96 85 53 49 86 152 150 153 152 179 170 157 191 98
230 206 169 142 103 76 70 60 61 63 63 78 91 107 101 87 74 64 49 28 -1 -41 -44 -13 25 47 63 68 54 76 23 53 42 132 190 183 214 198 175 186 171 149 132
214 208 176 137 96 66 67 63 59 47 78 97 94 107 102 86 63 39 18 -4 -28 -28 -4 33 41 47 37 57 38 -1 0 28 73 111 99 172 327 211 199 182 169 148 110
215 182 163 138 117 87 71 68 62 76 82 82 96 89 74 54 48 40 24 6 -5 0 -2 8 21 30 41 43 56 -3 -27 11 25 67 136 141 261 436 355 170 169 154 135
184 210 173 146 98 68 44 43 62 80 79 79 72 56 48 63 49 42 25 22 22 22 17 -16 5 14 32 30 46 67 49 36 52 101 148 142 190 343 413 343 261 230 175
232 193 169 119 79 65 67 68 84 79 59 53 61 73 82 71 52 44 43 51 57 36 25 -2 -12 -2 23 37 42 52 50 51 39 68 122 69 119 372 374 397 344 329 275
249 221 156 105 86 78 64 78 46 19 49 75 102 104 85 64 49 65 62 58 47 39 25 23 22 5 35 21 40 43 54 64 53 47 60 114 31 210 190 212 357 337 329

GFSSE_con_3kmhel_162.txt.gz
Helicity
69 49 71 63 55 36 44 40 60 79 95 104 100 88 91 87 79 77 68 55 44 38 36 32 28 30 33 39 38 31 27 25 21 22 17 14 24 39 40 22 9 11 64
129 88 94 69 59 68 83 72 77 89 94 109 105 92 83 78 68 63 62 50 42 44 44 41 37 39 32 37 36 33 26 20 21 21 18 16 19 30 41 36 -23 44 46
135 104 77 86 75 79 76 93 109 135 141 142 128 124 112 94 81 77 70 70 69 52 45 42 40 38 38 36 34 28 28 22 21 17 9 -8 37 35 33 36 6 30 29
146 133 97 113 107 104 105 130 134 149 154 160 170 171 174 176 169 167 169 169 131 96 66 52 52 50 39 43 43 35 32 27 25 18 6 16 21 71 34 28 20 28 19
146 138 139 130 117 113 126 135 148 161 165 166 165 169 179 182 185 185 182 182 175 165 162 143 114 100 68 50 48 44 40 35 29 20 15 24 17 73 45 32 32 25 24
134 125 148 139 112 112 123 139 148 146 146 153 157 161 170 184 188 188 175 162 154 141 133 131 141 146 142 114 85 55 51 42 36 22 40 53 22 71 53 39 15 31 40
112 92 146 153 120 131 135 134 135 145 158 171 176 181 182 175 173 167 159 158 151 151 150 150 152 152 150 146 139 134 98 56 37 30 37 44 48 86 47 32 39 30 37
108 132 111 110 135 144 140 134 138 161 182 186 191 193 190 179 164 158 147 147 139 134 128 127 131 135 136 136 131 130 147 130 47 37 41 41 63 90 49 37 34 43 45
116 84 88 108 114 138 149 147 178 197 214 215 197 176 159 143 129 120 125 131 127 120 119 115 112 112 107 94 102 106 109 98 73 33 47 62 101 96 58 40 35 40 41
117 128 126 100 90 95 119 178 189 196 192 179 161 133 95 82 83 99 98 115 119 112 112 110 105 101 95 77 84 85 77 58 50 73 74 56 146 83 64 58 49 40 31
126 135 118 102 97 103 112 122 134 150 155 149 124 108 75 83 96 105 124 136 142 148 137 141 131 121 110 54 71 88 77 78 82 74 85 101 121 77 63 56 51 53 47
125 129 132 118 109 102 87 88 109 126 140 131 104 91 71 74 72 63 69 77 78 104 85 101 100 97 115 122 115 100 139 136 93 89 93 141 163 99 68 70 60 58 50
152 149 141 133 111 82 88 88 93 106 95 86 96 75 53 35 32 38 45 53 56 70 63 66 67 75 84 81 89 99 128 112 131 141 115 125 115 125 117 72 66 66 57
151 157 146 123 111 109 107 118 119 98 78 64 48 33 13 10 19 35 52 61 61 59 61 55 48 55 55 61 71 75 79 105 137 170 167 139 109 119 126 129 104 82 76
136 140 139 133 143 152 162 143 123 108 84 47 28 29 24 31 33 39 52 56 49 43 39 30 32 41 48 58 74 87 101 111 110 133 155 162 139 111 112 106 115 101 81
147 150 159 170 184 185 165 140 107 78 47 36 31 35 50 55 61 64 65 66 62 53 44 19 12 6 21 39 62 85 101 110 120 130 139 137 134 121 101 105 102 100 114
164 170 176 195 190 187 173 136 96 71 51 42 44 65 77 78 66 56 58 60 63 47 34 13 -15 -8 15 40 54 72 83 83 98 106 121 131 135 125 118 79 90 103 98
194 184 175 181 179 182 167 130 100 77 61 60 63 69 79 78 72 66 78 86 77 63 54 43 24 24 36 53 65 76 79 83 83 79 79 96 120 144 142 130 81 92 109
188 176 158 171 177 176 153 119 91 68 71 68 62 70 83 94 91 84 96 94 79 71 61 50 29 12 24 44 55 60 66 69 75 79 98 109 111 123 145 149 160 114 123
196 158 158 170 180 167 131 97 81 79 72 63 77 89 93 97 94 88 91 91 75 60 44 27 7 7 13 54 67 67 80 62 59 68 112 144 205 228 154 145 163 156 86
183 165 171 168 167 141 116 102 89 85 70 73 82 88 91 96 94 96 92 84 63 36 15 1 -12 5 18 69 44 72 31 43 56 87 86 114 140 169 253 264 166 167 170
180 173 177 171 157 132 122 111 101 77 72 74 72 88 101 97 100 102 93 66 39 7 8 24 36 35 19 36 53 33 70 52 69 53 77 140 198 163 202 224 161 151 182
200 203 190 183 169 149 124 106 92 76 62 42 69 96 106 96 97 80 54 47 42 34 43 49 50 30 22 30 70 56 58 86 54 10 59 128 140 193 234 300 259 106 116
201 202 208 209 189 149 107 88 52 51 66 91 108 115 98 86 77 67 67 63 56 56 58 51 62 34 38 18 23 83 69 58 65 62 75 117 41 140 298 367 285 179 309
224 229 233 223 198 152 118 77 62 70 89 109 112 91 67 73 72 78 72 72 70 59 52 51 57 58 21 5 17 44 62 62 32 91 44 121 108 90 335 347 233 184 202
247 239 245 233 202 147 105 71 60 68 88 97 78 63 76 74 81 97 92 86 66 53 53 52 37 41 31 21 33 47 53 69 51 81 52 65 77 -15 41 361 152 107 266

GFSSE_con_3kmhel_165.txt.gz
Helicity
136 83 65 48 41 33 29 38 49 57 74 90 94 93 95 85 76 67 57 49 34 32 36 38 35 30 30 29 23 18 14 15 17 18 14 12 23 34 35 27 0 14 62
193 127 110 84 69 52 39 49 62 71 82 100 97 100 88 85 80 71 68 59 50 44 37 38 40 33 31 28 27 18 13 18 15 10 5 8 20 32 33 18 31 31 49
239 126 114 91 79 81 83 90 87 100 116 117 128 129 129 127 133 138 140 121 83 66 51 42 37 32 29 28 25 18 18 17 15 7 -7 -4 61 33 47 27 37 55 53
207 143 118 119 121 113 120 118 117 138 153 157 164 159 163 162 163 162 160 157 152 136 110 84 66 57 59 47 34 29 23 18 15 8 4 28 90 78 57 46 30 44 48
284 171 135 146 141 136 149 140 147 158 152 145 139 150 155 165 174 180 174 165 155 142 132 123 122 115 106 97 79 54 30 31 17 1 14 4 27 129 74 66 46 32 38
283 168 160 173 169 162 155 147 151 149 144 145 136 142 164 175 185 182 168 151 142 130 117 112 109 110 112 109 120 114 97 55 26 11 9 29 30 97 53 76 47 33 59
248 140 158 170 164 163 149 145 137 138 138 135 136 148 162 167 161 151 135 121 106 99 94 90 91 92 95 86 82 85 87 80 32 13 4 17 53 159 74 53 52 36 48
184 116 128 161 190 181 162 158 152 146 134 131 138 145 146 139 127 115 102 101 102 103 101 95 95 89 83 77 72 69 69 64 43 0 -4 7 55 179 110 76 51 44 31
120 120 125 185 166 177 175 154 146 135 121 128 138 137 128 132 124 105 106 113 115 105 102 96 95 92 85 77 68 62 56 46 39 27 5 11 -11 133 106 79 53 40 46
167 153 129 83 87 114 130 137 132 131 141 156 146 115 94 59 53 82 83 93 93 84 81 79 73 69 60 39 15 39 50 50 48 49 64 53 81 101 84 66 59 42 38
165 125 112 106 113 108 108 101 116 131 128 110 101 96 54 69 65 56 65 60 76 83 73 77 76 73 61 57 6 19 51 53 115 115 88 114 143 127 113 92 90 71 52
139 141 126 132 110 87 98 108 126 140 136 118 104 82 65 59 46 34 40 35 59 82 53 71 65 59 64 86 85 77 97 118 102 77 76 165 172 114 104 141 86 77 71
124 141 137 135 114 96 110 107 115 95 93 108 108 86 59 39 27 20 24 33 35 56 54 50 44 50 62 62 78 86 103 104 120 126 118 162 154 130 123 95 121 133 64
147 154 152 139 135 131 121 118 94 106 108 91 85 67 35 24 19 23 33 38 38 37 35 32 24 27 19 23 38 57 70 86 106 132 144 154 160 146 117 116 99 112 148
147 160 168 156 146 140 136 122 133 119 106 87 74 62 37 38 34 35 39 42 48 51 57 49 47 37 20 22 30 40 56 67 74 88 109 117 124 119 110 84 96 103 104
167 159 184 181 153 125 139 141 159 135 109 110 81 56 49 44 44 45 59 68 73 65 65 57 60 42 34 22 20 33 41 57 71 83 100 109 100 92 99 96 84 95 87
159 156 176 180 157 153 164 174 164 136 121 97 62 61 62 66 67 59 64 71 76 60 56 60 55 53 34 27 16 22 28 38 56 68 78 80 81 78 86 86 119 105 103
162 184 181 172 163 167 196 169 153 133 113 86 68 68 82 88 79 58 73 80 73 62 67 70 65 53 33 13 10 13 23 25 32 41 49 73 94 88 88 87 96 116 143
205 175 174 187 184 208 196 173 153 129 117 94 82 80 82 79 72 68 87 90 74 80 84 76 67 57 51 35 31 34 -1 28 53 55 62 68 96 142 149 187 211 175 102
234 189 199 208 222 203 197 159 147 126 117 102 92 83 75 78 87 91 94 91 86 90 89 83 72 49 19 31 37 24 21 -1 42 64 122 105 72 128 142 121 138 132 136
275 226 226 257 217 201 180 157 138 133 119 108 94 79 83 95 101 104 94 89 94 96 92 83 59 46 32 41 1 37 -22 5 48 172 111 65 183 159 128 101 95 96 100
280 244 249 245 199 191 188 170 148 140 133 107 83 88 103 102 109 94 93 95 94 80 84 71 67 49 45 53 22 -22 -18 -26 179 56 128 148 210 77 102 133 222 212 156
305 263 254 230 212 215 214 196 183 169 126 86 79 80 99 97 100 106 100 88 80 71 84 71 78 66 62 68 54 18 -6 85 71 41 74 188 150 78 11 185 302 171 93
312 266 244 243 235 229 174 176 157 134 115 122 99 98 88 98 107 98 83 82 79 75 82 76 78 73 76 55 43 60 57 70 111 95 72 54 62 79 41 180 331 130 9
308 295 267 265 263 228 197 180 166 150 157 96 88 81 103 103 96 96 83 75 78 79 81 80 74 72 57 51 45 38 27 41 26 107 58 58 57 67 66 108 216 104 50
264 287 292 281 279 248 224 191 157 128 95 87 71 78 98 99 84 84 75 82 78 79 81 78 65 65 69 61 38 19 29 64 89 82 77 40 29 85 118 92 6 109 7